Location: Newark
(44.3449°N, 4.8694°E)
Time: 11:59:43
(UTC+00:00)

Envisat - Pass Details

Date: 27 January 2020
Orbit: 764 x 766 km, 98.1° (Epoch: 20 February)

Event Time Altitude Azimuth Distance (km) Brightness Sun altitude
Rises 04:58:20 0° 32° (NNE) 3,240 6.6 -22.5°
Reaches altitude 10° 05:01:55 10° 58° (ENE) 2,307 6.2 -21.9°
Maximum altitude 05:04:25 14° 88° (E) 2,059 6.3 -21.5°
Drops below altitude 10° 05:06:54 10° 118° (ESE) 2,298 6.4 -21.0°
Sets 05:10:26 0° 144° (SE) 3,218 6.9 -20.4°
